Regional Weather Roundup
Issued by NWS

Home | Current Version | Previous Version | Text Only | Print | Product List | Glossary On
Versions: 1 2 3 4 5 6 7 8 9 10 11 12 13 14 15 16 17 18 19 20 21 22 23 24 25 26 27 28 29 30 31 32 33 34 35 36 37 38 39 40 41 42 43 44 45 46 47 48 49 50
842
ASUS44 KLIX 290201
RWRLA
LOUISIANA WEATHER ROUNDUP
NATIONAL WEATHER SERVICE NEW ORLEANS LA
800 PM CST WED JAN 28 2015

NOTE: "FAIR" INDICATES FEW OR NO CLOUDS BELOW 12,000 FEET WITH NO
      SIGNIFICANT WEATHER AND/OR OBSTRUCTIONS TO VISIBILITY.
      SKY/WX - SKY CONDITION AND SIGNIFICANT WEATHER.
      TMP - AIR TEMPERATURE.    DP   - DEWPOINT TEMPERATURE.
      RH  - RELATIVE HUMIDITY.  PRES - PRESSURE.
      HX  - HEAT INDEX.         WCI  - WIND CHILL INDEX.

*  THESE STATIONS ARE NOT NWS OR FAA STATIONS AND ARE NOT UNDER
   NWS QUALITY CONTROL.

LAZ040-048-061>063-065-066-069-290300-
SOUTHEAST LOUISIANA

CITY           SKY/WX    TMP DP  RH WIND       PRES   REMARKS
N.O. AUDUBON     N/A     55  44  65 MISG        N/A
N.O. INTL ARPT PTCLDY    54  42  64 SE7       30.24F
N.O. LAKEFRONT CLEAR     54  38  54 S8        30.25F
N.O. DOWNTOWN* NOT AVBL
SLIDELL        PTCLDY    48  42  80 S3        30.24S
BATON ROUGE    PTCLDY    56  39  53 SE7       30.19F
BOOTHVILLE     PTCLDY    52  49  89 CALM      30.27R
BELLE CHASSE   PTCLDY    50  42  74 SE5       30.25S
BOGALUSA*        N/A     56  42  59 S6        30.24F
GALLIANO*      NOT AVBL
NEW ROADS*     NOT AVBL
GONZALES*      NOT AVBL
HAMMOND*       NOT AVBL
HOUMA*         CLEAR     50  44  79 SE7       30.23F
PORT FOURCHON* CLEAR     61  52  72 SE7       30.29S

$$

LAZ041-044-053-054-290300-
SOUTHWEST LOUISIANA

CITY           SKY/WX    TMP DP  RH WIND       PRES   REMARKS
LAKE CHARLES   CLEAR     56  52  86 S6        30.19R
LAFAYETTE      CLEAR     58  47  66 S9        30.18S
PATTERSON      CLEAR     55  46  71 SE9       30.21F
SALT POINT       N/A     56  50  80 SE8       30.19F
NEW IBERIA     CLEAR     55  47  74 SE9       30.19S
CHENAULT AIRPK CLEAR     52  46  82 S6        30.19R

$$

LAZ027-028-290300-
CENTRAL LOUISIANA

CITY           SKY/WX    TMP DP  RH WIND       PRES   REMARKS
FORT POLK      PTCLDY    59  43  54 S10       30.17R
ALEXANDRIA INT MOCLDY    60  43  53 S10       30.15R
ALEXANDRIA     MOCLDY    59  43  55 SW7       30.17R

$$

LAZ001-002-290300-
NORTHWEST LOUISIANA

CITY           SKY/WX    TMP DP  RH WIND       PRES   REMARKS
SHREVEPORT     MOCLDY    63  44  50 S13       30.07F
BARKSDALE AFB  MOCLDY    58  43  58 S12       30.07F
DTN SHREVEPORT MOCLDY    63  42  46 S12       30.07F

$$

LAZ014-016-290300-
NORTHEAST LOUISIANA

CITY           SKY/WX    TMP DP  RH WIND       PRES   REMARKS
MONROE         CLOUDY    61  41  47 S6        30.14R
TALLULAH       MOCLDY    59  40  49 S8        30.14R

$$




USA.gov is the U.S. government's official web portal to all federal, state and local government web resources and services.